Time,TemperatureF,DewpointF,PressureIn,WindDirection,WindDirectionDegrees,WindSpeedMPH,WindSpeedGustMPH,Humidity,HourlyPrecipIn,Conditions,Clouds,dailyrainin,SoftwareType,DateUTC
2013-03-29 08:20:00,33.4,30.5,30.27,ESE,120,0.0,0.0,89,0.00,,,0.00,Wunderground v.1.15,2013-03-29 15:20:00,
2013-03-29 08:24:00,34.1,30.9,30.27,ESE,120,0.0,0.0,88,0.00,,,0.00,Wunderground v.1.15,2013-03-29 15:24:00,
2013-03-29 08:30:00,35.2,32.0,30.25,ENE,69,0.0,0.0,88,0.00,,,0.00,Wunderground v.1.15,2013-03-29 15:30:00,
2013-03-29 08:40:00,36.8,32.7,30.25,ENE,69,0.0,1.0,85,0.00,,,0.00,Wunderground v.1.15,2013-03-29 15:40:00,
2013-03-29 08:50:00,38.2,33.2,30.24,East,80,0.0,0.0,82,0.00,,,0.00,Wunderground v.1.15,2013-03-29 15:50:00,
2013-03-29 09:00:00,39.5,33.2,30.23,East,80,0.0,1.0,78,0.00,,,0.00,Wunderground v.1.15,2013-03-29 16:00:00,
2013-03-29 09:05:00,39.9,33.3,30.23,East,80,0.0,1.0,77,0.00,,,0.00,Wunderground v.1.15,2013-03-29 16:05:00,
2013-03-29 09:15:00,40.9,33.6,30.24,East,80,0.0,0.0,75,0.00,,,0.00,Wunderground v.1.15,2013-03-29 16:15:00,
2013-03-29 09:25:00,42.1,34.1,30.24,ESE,112,0.0,0.0,73,0.00,,,0.00,Wunderground v.1.15,2013-03-29 16:25:00,
2013-03-29 09:34:00,43.2,34.1,30.23,SW,236,0.0,0.0,70,0.00,,,0.00,Wunderground v.1.15,2013-03-29 16:34:00,
2013-03-29 09:40:00,43.6,34.1,30.23,SW,236,0.0,0.0,69,0.00,,,0.00,Wunderground v.1.15,2013-03-29 16:40:00,
2013-03-29 09:50:00,44.6,34.3,30.22,SW,224,0.0,0.0,67,0.00,,,0.00,Wunderground v.1.15,2013-03-29 16:50:00,
2013-03-29 10:00:00,45.5,33.6,30.20,West,277,0.0,0.0,63,0.00,,,0.00,Wunderground v.1.15,2013-03-29 17:00:00,
2013-03-29 10:05:00,46.2,35.1,30.20,NW,318,0.0,0.0,65,0.00,,,0.00,Wunderground v.1.15,2013-03-29 17:05:00,
2013-03-29 10:15:00,47.3,35.3,30.22,North,359,0.0,1.0,63,0.00,,,0.00,Wunderground v.1.15,2013-03-29 17:15:00,
2013-03-29 10:25:00,48.3,35.9,30.22,West,272,1.0,1.0,62,0.00,,,0.00,Wunderground v.1.15,2013-03-29 17:25:00,
2013-03-29 10:35:00,49.4,35.7,30.20,NNW,339,0.0,1.0,59,0.00,,,0.00,Wunderground v.1.15,2013-03-29 17:35:00,
2013-03-29 10:45:00,50.5,36.7,30.20,North,349,0.0,1.0,59,0.00,,,0.00,Wunderground v.1.15,2013-03-29 17:45:00,
2013-03-29 10:54:00,51.3,35.7,30.20,NNW,343,2.0,2.0,55,0.00,,,0.00,Wunderground v.1.15,2013-03-29 17:54:00,
2013-03-29 11:00:00,51.7,35.1,30.19,North,0,1.0,1.0,53,0.00,,,0.00,Wunderground v.1.15,2013-03-29 18:00:00,
2013-03-29 11:05:00,52.2,35.6,30.19,North,359,0.0,1.0,53,0.00,,,0.00,Wunderground v.1.15,2013-03-29 18:05:00,
2013-03-29 11:15:00,53.1,35.4,30.20,WSW,253,0.0,2.0,51,0.00,,,0.00,Wunderground v.1.15,2013-03-29 18:15:00,
2013-03-29 11:25:00,53.9,35.7,30.20,North,356,1.0,1.0,50,0.00,,,0.00,Wunderground v.1.15,2013-03-29 18:25:00,